Regional Weather Roundup
Issued by NWS Upton, NY

Current Version | Previous Version | Text Only | Print | Product List | Glossary On
Versions: 1 2 3 4 5 6 7 8 9 10 11 12 13 14 15 16 17 18 19 20 21 22 23 24 25 26 27
000
ASUS41 KOKX 012108
RWROKX

REGIONAL WEATHER ROUNDUP
NATIONAL WEATHER SERVICE NEW YORK NY
400 PM EST THU DEC 01 2016

NOTE: "FAIR" INDICATES FEW OR NO CLOUDS BELOW 12,000 FEET WITH NO
SIGNIFICANT WEATHER AND/OR OBSTRUCTIONS TO VISIBILITY.

NYZ071-072-176-178-NJZ106-104-012200-
NEW YORK CITY METRO AREA

CITY           SKY/WX    TMP DP  RH WIND       PRES   REMARKS
Central Park   CLOUDY    50  30  46 W15G24    29.73R
Wall St Helipt CLOUDY    51  33  50 VRB6G16   29.72R
Bronx Bot Gard NOT AVBL
LaGuardia APRT MOCLDY    52  31  44 W24G33    29.70R
Kennedy INTL   MOCLDY    51  30  44 W20G30    29.71R
Breezy Point     N/A     48 N/A N/A W16G24      N/A
Newark/Liberty MOCLDY    50  32  50 W17G29    29.71R
Teterboro      CLOUDY    50  30  46 W12G24    29.70R
$$

NYZ177-179-078>081-012200-
LONG ISLAND NEW YORK

CITY           SKY/WX    TMP DP  RH WIND       PRES   REMARKS
Jones Beach      N/A     50 N/A N/A NW23G35     N/A
Matinecock PT    N/A     50 N/A N/A W31         N/A
Farmingdale    CLOUDY    50  30  46 NW22G31   29.70R
MacArthur/ISP  CLOUDY    50  32  50 W14G23    29.68R
Shirley        CLOUDY    50  33  52 W16G23    29.67R
Westhampton    CLOUDY    51  34  52 W17G25    29.67R
Southampton    NOT AVBL
Bridgehampton  NOT AVBL
East Hampton   CLOUDY    50  36  57 NW10G17   29.64R
Montauk          N/A     52  39  61 W14G28    29.63R
$$

NYZ052-065-067-012200-
HUDSON VALLEY

CITY           SKY/WX    TMP DP  RH WIND       PRES   REMARKS
White Plains   MOCLDY    48  30  49 W15G24    29.67R
Newburgh       MOCLDY    46  36  66 W18       29.68R
Montgomery     MOCLDY    47  33  58 W13G20    29.67R
Poughkeepsie   CLOUDY    46  32  58 W9        29.67R
Albany         CLOUDY    44  35  70 W7        29.65R
$$

NJZ001-105-106-008-010-013-015-019>022-104-012200-
NEW JERSEY

CITY           SKY/WX    TMP DP  RH WIND       PRES   REMARKS
Newark/Liberty MOCLDY    50  32  50 W17G29    29.71R
Teterboro      CLOUDY    50  30  46 W12G24    29.70R
Caldwell       CLOUDY    49  30  48 NW15G22   29.71R
Somerville     CLOUDY    49  32  52 VRB7      29.72R
Linden         CLOUDY    49  32  52 W17G24    29.72R
Sussex         CLOUDY    46  31  55 SW5       29.70R
Andover          N/A     46  29  51 VRB6G21   29.71R
Trenton        CLOUDY    50  32  50 W10G18    29.73R
Millville      PTCLDY    53  34  48 W14       29.77R
Atlantic City  MOCLDY    53  33  46 W12G21    29.75R
Wrightstown    CLOUDY    50  33  51 NW14G22   29.72R
Toms River     CLOUDY    51  34  52 W14       29.75R
Belmar         PTCLDY    50  32  50 W17G24    29.73R
$$

PAZ047>061-062-071-012200-
EASTERN PENNSYLVANIA

CITY           SKY/WX    TMP DP  RH WIND       PRES   REMARKS
Philadelphia   CLOUDY    52  34  50 W18       29.77R
Allentown      CLOUDY    47  32  56 W10       29.74R
Scranton       CLOUDY    43  29  57 W14       29.71R
$$

CTZ002-004>006-009-010-012-RIZ004-006-007-MAZ004-011-015-012200-
SOUTHERN NEW ENGLAND
 IN CT

CITY           SKY/WX    TMP DP  RH WIND       PRES   REMARKS
Bradley INTL   CLOUDY    49  31  49 W9        29.62R
Hartford       CLOUDY    50  34  54 W7        29.63R
Danbury        CLOUDY    47  31  53 W8G18     29.67R
Wtrbury/Oxford MOCLDY    46  28  49 W12G21    29.66R
Bridgeport     CLOUDY    51  33  50 W16G22    29.66R
Meriden        CLOUDY    51  31  46 W9G22     29.65R
New Haven      CLOUDY    50  34  54 W7G18     29.65R
Chester        CLOUDY    50  32  50 W8G22     29.63R
Groton         CLOUDY    55  36  48 W14G25    29.61R
Wilimantic     CLOUDY    52  34  50 W12       29.61R

 IN RI

CITY           SKY/WX    TMP DP  RH WIND       PRES   REMARKS
Providence     CLOUDY    52  36  54 NW14      29.58R
Block Island   CLOUDY    53  42  66 W20G29    29.60R
Westerly       CLOUDY    55  35  47 W12G23    29.60R
 IN MA

CITY           SKY/WX    TMP DP  RH WIND       PRES   REMARKS
Boston         MOCLDY    50  33  52 W21G29    29.56R
Worcester      CLOUDY    44  33  65 W14       29.58R
Westfield      CLOUDY    49  32  52 NW17G23   29.61R
Provincetown   MOCLDY    52  40  63 W23G29    29.54R
Nantucket      CLEAR     52  44  74 W14       29.56R
$$

ANZ330-335-338-340-345-350-353-355-012200-
COASTAL MARINE OBSERVATIONS


STATION/POSITION TIME  SKY/WX   TEMP    WIND        PRES    VSBY  WAVE
                                AIR SEA DIR/SP/G                  HT/PER
                 (UTC)          (F)     (DEG/KT/KT) (MB)    (MI)  (FT/S)
NY HARB ENTRANCE 1950            51 55  280/ 25/ 29 1004.9          6/ 8
20 S FIRE ISLAND 1950            51 55  290/ 27/ 33 1003.9          7/ 8
GREAT SOUTH BAY  2030            50 47                N/A
23 SSW MONTAUK P 2050            54 56  280/ 21/ 27 1003.3          9/ 8
15 E BARNEGAT LI 2030               55                N/A           6/ 8
HUDSON CANYON    1950            56 60              1004.6          9/ 9
KINGS POINT      2048            49 51              1005.5
EXECUTION ROCKS  2045            50     270/ 19/ 27   N/A
CENTRAL LI SOUND 2030            51 52  290/ 19/ 23   N/A           3/ 4
EASTERN LI SOUND NOT AVBL
ROBBINS REEF     2048            50     300/ 22/ 28 1006.0
$$


>>>>>>>>>>>>>>>>>>>>>>>>>>>> KEY <<<<<<<<<<<<<<<<<<<<<<<<<<<
>                                                          <
>     SKY/WX - Sky Condition/Present Weather               <
>     TMP    - Temperature in Fahrenheit                   <
>     DP     - Dew Point in Fahrenheit                     <
>     RH     - Relative Humidity in Percent                <
>     WIND   - Direction (from) and Speed in MPH           <
>     PRES   - Mean Sea Level Pressure (inches of Hg)      <
>     WCI    - Wind Chill Index                            <
>     VSB    - VISIBILITY IN MILES                         <
>     HX     - HEAT INDEX                                  <
>     TC     - TEMPERATURE IN CELSIUS                      <
>     VRB    - VARIABLE WIND DIRECTION                     <
>                                                          <
>>>>>>>>>>>>>>>>>>>>>>>>>>>> KEY <<<<<<<<<<<<<<<<<<<<<<<<<<<




USA.gov is the U.S. government's official web portal to all federal, state and local government web resources and services.